KRDUKGEV

Guest
Details From KRDU - Raleigh Durham Intl
To KGEV - ASHE COUNTY
Flight Number -
Tags generated
Created
Modified
Stats Distance 132 nm / 245 km
Max Altitude 10,900 ft / 3,322 m
Waypoints 3
Social Downloads 0
Likes 0
Share VATSIM

Download

Looking for another format? Having issues loading an existing format? Contact us
Advertisement - Login to hide

Notes

Basic altitude profile: - Ascent Rate: 2500ft/min - Ascent Speed: 200kts - Cruise Altitude: 15000ft - Cruise Speed: 420kts - Descent Rate: 1500ft/min - Descent Speed: 250kts Options: - Use NATs: yes - Use PACOTS: yes - Use low airways: yes - Use high airways: yes

Route

KRDU INGON KGEV

ID Type Via Altitude Latitude Longitude Leg Dist Tot Dist Heading (true) Name
O KRDU APT - 0 ft / 0 m 35.87586˚ -78.78560˚ - 0 nm - Raleigh Durham Intl
INGON FIX - 10,900 ft / 3,322 m 36.21861˚ -80.29441˚ 76 nm 76 nm 286° / 285° -
O KGEV APT - 0 ft / 0 m 36.43245˚ -81.41970˚ 55 nm 132 nm 284° / 283° ASHE COUNTY

Altitude Profile

Advertisement - Login to hide

KRDU

Details ICAO KRDU (RDU)
Name Raleigh Durham Intl
Region United States
Timezone America/New_York (UTC-4.0)
Stats Elevation 435 ft / 133 m (AMSL)
Location 35.875863° -78.785598°
Runways 3
Magnetic Variation 9.202° W

METAR

KRDU 242251Z 10007KT 10SM FEW050 SCT250 28/13 A3013 RMK AO2 SLP198 T02780133

Decode

TAF

KRDU 241723Z 2418/2518 07006KT P6SM FEW250 FM251000 VRB03KT P6SM FEW045 FM251200 VRB03KT P6SM FEW200 FM251500 15006KT P6SM FEW035 SCT150

Decode

Departure Runways

ID Width Length Bearing (true) Bearing (mag) Surface Threshold Offset Overrun Length
05L 150 ft / 46 m 10,002 ft / 3,049 m 45.02° 54.22° Concrete 0 ft / 0 m 200 ft / 61 m
05R 150 ft / 46 m 7,503 ft / 2,287 m 45.01° 54.21° Asphalt 0 ft / 0 m 200 ft / 61 m
14 100 ft / 30 m 3,571 ft / 1,088 m 135.28° 144.48° Asphalt 0 ft / 0 m 0 ft / 0 m
23L 150 ft / 46 m 7,503 ft / 2,287 m 225.02° 234.22° Asphalt 0 ft / 0 m 200 ft / 61 m
23R 150 ft / 46 m 10,002 ft / 3,049 m 225.03° 234.23° Concrete 0 ft / 0 m 200 ft / 61 m
32 100 ft / 30 m 3,571 ft / 1,088 m 315.28° 324.48° Asphalt 0 ft / 0 m 0 ft / 0 m

KGEV

Details ICAO KGEV
Name ASHE COUNTY
Region United States
Timezone America/New_York (UTC-4.0)
Stats Elevation 3,180 ft / 969 m (AMSL)
Location 36.432446° -81.419701°
Runways 1
Magnetic Variation 7.602° W

METAR

KGEV 242325Z AUTO 15004KT 10SM SCT019 SCT037 19/16 A3024 RMK AO2 T01900162

Decode

TAF

Not found

Destination Runways

ID Width Length Bearing (true) Bearing (mag) Surface Threshold Offset Overrun Length
10 75 ft / 23 m 4,283 ft / 1,306 m 88.87° 96.47° Asphalt 0 ft / 0 m 0 ft / 0 m
28 75 ft / 23 m 4,283 ft / 1,306 m 268.88° 276.48° Asphalt 0 ft / 0 m 0 ft / 0 m

Popular Alternatives